STARLINK-35285

Last updated on Mon Oct 20 2025 00:02:07 GMT+0000 (Coordinated Universal Time)

1 65807U 25218S 25292.26158605 .00080934 00000+0 14718-2 0 9993 2 65807 97.6026 152.8408 0002104 75.5391 284.6093 15.49240544 3646
UTC large
Height (km)
Speed (km/s)
/
Latitude / Longitude
Inclination (degrees)
Orbital Period (minutes)
Azimuth
Elevation
Range (km)
Doppler Factor

Next 0 passes for location: London (51.5072 / 0.1276)

Sorry there are no passes over London.